[Iaude] MPEC B125: 2019 BD3 [a=1.80,e=0.46,i=0.4,H=25.6]

mpec at mpcdb1.cfa.harvard.edu mpec at mpcdb1.cfa.harvard.edu
Mon Jan 28 13:03:17 EST 2019


M.P.E.C. 2019-B125                               Issued 2019 Jan. 28, 18:00 UT
 
     The Minor Planet Electronic Circulars contain information on unusual
         minor planets and routine data on comets.  They are published
    on behalf of Division F of the International Astronomical Union by the
          Minor Planet Center, Smithsonian Astrophysical Observatory,
                          Cambridge, MA 02138, U.S.A.

             Prepared using the Tamkin Foundation Computer Network

                              MPC at CFA.HARVARD.EDU
            URL https://www.minorplanetcenter.net/    ISSN 1523-6714


                                   2019 BD3
 
Observations:
     K19B03D* C2019 01 26.44612 09 52 34.44 +21 58 52.2          19.7 GVEB125G96
     K19B03D  C2019 01 26.45123 09 52 40.05 +21 58 34.4          19.8 GVEB125G96
     K19B03D  C2019 01 26.45635 09 52 45.68 +21 58 17.0          19.6 GVEB125G96
     K19B03D  C2019 01 26.46146 09 52 51.29 +21 57 58.3          19.5 GVEB125G96
     K19B03D  C2019 01 26.52767 09 54 05.31 +21 53 53.6          19.7 GVEB125I52
     K19B03D  C2019 01 26.52791 09 54 05.55 +21 53 52.0          19.6 GVEB125I52
     K19B03D  C2019 01 26.52816 09 54 05.78 +21 53 51.4          19.1 GVEB125I52
     K19B03D KC2019 01 27.01719 10 04 12.19 +21 23 13.5          19.7 GVEB125104
     K19B03D KC2019 01 27.02704 10 04 23.97 +21 22 34.3          19.6 GVEB125104
     K19B03D KC2019 01 27.03690 10 04 35.72 +21 21 54.9          19.8 GVEB125104
     K19B03D KC2019 01 27.09390810 05 43.72 +21 17 54.4          19.5 GVEB125L01
     K19B03D KC2019 01 27.09470210 05 44.68 +21 17 51.0          19.5 GVEB125L01
     K19B03D KC2019 01 27.09548910 05 45.63 +21 17 47.8          19.4 GVEB125L01
     K19B03D KC2019 01 27.09785510 05 48.51 +21 17 37.7          19.5 GVEB125L01
     K19B03D KC2019 01 28.08569010 28 12.11 +19 58 49.4          19.6 GVEB125J95
     K19B03D KC2019 01 28.08878210 28 16.38 +19 58 32.2          19.3 GVEB125J95
     K19B03D KC2019 01 28.09187710 28 20.63 +19 58 14.6          19.8 GVEB125J95
     K19B03D  C2019 01 28.38933 10 35 38.47 +19 31 05.3          19.5 GVEB125I52
     K19B03D  C2019 01 28.38957 10 35 38.79 +19 31 03.7          19.4 GVEB125I52
     K19B03D  C2019 01 28.38981 10 35 39.15 +19 31 02.3          19.5 GVEB125I52
     K19B03D  C2019 01 28.39005 10 35 39.48 +19 31 00.7          19.4 GVEB125I52
 
Observer details:
104 San Marcello Pistoiese.  Observers P. Bacci, M. Maestripieri,
    M. D. Grazia, M. Michela.  Measurers P. Bacci, L. Tesi, G. Fagioli.
    0.60-m reflector + CCD.
G96 Mt. Lemmon Survey.  Observer G. J. Leonard.  Measurers B. M. Africano,
    E. J. Christensen, G. A. Farneth, D. C. Fuls, A. R. Gibbs, A. D. Grauer,
    H. Groeller, R. A. Kowalski, S. M. Larson, G. J. Leonard, T. A. Pruyne,
    R. L. Seaman, F. C. Shelly.  1.5-m reflector + 10K CCD.
I52 Steward Observatory, Mt. Lemmon Station.  Observers B. M. Africano,
    H. Groeller.  Measurers B. M. Africano, E. J. Christensen, G. A. Farneth,
    D. C. Fuls, A. R. Gibbs, A. D. Grauer, H. Groeller, R. A. Kowalski,
    S. M. Larson, G. J. Leonard, T. A. Pruyne, R. L. Seaman, F. C. Shelly.
    1.0-m reflector + CCD.
J95 Great Shefford.  Observer P. Birtwhistle.  0.41-m f/6.3
    Schmidt-Cassegrain + CCD.
L01 Visnjan Observatory, Tican.  Observer K. Korlevic.  1.0-m f/2.9 reflector
    + CCD.
 
Orbital elements:
2019 BD3                                                 Earth MOID = 0.0035 AU
Epoch 2019 Apr. 27.0 TT = JDT 2458600.5                 MPC
M  24.69268              (2000.0)            P               Q
n   0.40978784     Peri.  119.86194     -0.95754589     -0.28824614
a   1.7951332      Node    43.38551     +0.26219446     -0.87724548
e   0.4637029      Incl.    0.37326     +0.11983292     -0.38386786
P   2.41           H   25.6           G   0.15           U   7
Residuals in seconds of arc
190126 G96  0.0   0.7-    190127 104  0.3-  0.0     190128 J95  0.1+  0.4+
190126 G96  0.0   0.3-    190127 104  0.2+  0.1+    190128 J95  0.1+  0.1+
190126 G96  0.1+  0.6+    190127 104  0.1-  0.3+    190128 J95  0.3-  0.5-
190126 G96  0.2-  0.3+    190127 L01  0.0   0.1+    190128 I52  0.1+  0.2+
190126 I52  0.5+  0.2+    190127 L01  0.0   0.0     190128 I52  0.2-  0.0
190126 I52  0.1+  0.5-    190127 L01  0.0   0.2+    190128 I52  0.1+  0.0
190126 I52  0.7-  0.1-    190127 L01  0.2+  0.1+    190128 I52  0.0   0.1-

Ephemeris:
2019 BD3                 a,e,i = 1.80, 0.46, 0                   q = 0.9627
Date    TT    R. A. (2000) Decl.     Delta      r     Elong.  Phase     V
2018 12 29    07 19 31.6 +24 02 52   0.1943  1.1745   168.7     9.5    23.0
...
2019 01 13    07 51 42.4 +24 36 03   0.1062  1.0894   175.3     4.2    21.3
...
2019 01 21    08 38 44.5 +24 22 59   0.06688 1.0503   172.1     7.4    20.4
...
2019 01 27    10 03 48.1 +21 25 45   0.04285 1.0248   159.1    20.1    19.8
2019 01 28    10 26 07.9 +20 08 31   0.03976 1.0209   154.8    24.2    19.8
2019 01 29    10 51 22.0 +18 26 30   0.03708 1.0171   149.7    29.2    19.8
...
2019 02 04    13 53 33.3 +00 07 49   0.03404 0.9967   107.9    70.2    20.7
...
2019 02 12    16 15 43.3 -15 05 25   0.05868 0.9766    78.0    98.6    22.9
...
2019 02 27    17 35 21.3 -20 48 11   0.1224  0.9628    73.6    99.4    24.6

A. U. Tomatic                (C) Copyright 2019 MPC           M.P.E.C. 2019-B125



More information about the Iaude mailing list